EW8307 Weather Reports


Display with metric or nautical units.
time (UTC)temp
F
wind
direction
speed
MPH
gust
MPH
rain 1hr
in
rain 24hr
in
rain mn
in
humidity
%
barometer
mb
20260504213125 71 212 3.0 9.0 0.00 0.00 0.00 32 1003.5
20260504211535 71 313 2.0 15.0 0.00 0.00 0.00 31 1003.6
20260504210025 71 203 2.0 10.0 0.00 0.00 0.00 31 1003.5
20260504204536 71 248 5.0 11.0 0.00 0.00 0.00 31 1003.4
20260504203124 71 306 2.0 7.0 0.00 0.00 0.00 31 1003.4
20260504201624 71 314 2.0 12.0 0.00 0.00 0.00 31 1003.5
20260504200023 70 309 4.0 14.0 0.00 0.00 0.00 32 1003.5
20260504194522 71 217 3.0 16.0 0.00 0.00 0.00 30 1003.6
20260504193122 71 274 1.0 9.0 0.00 0.00 0.00 32 1003.7
20260504191525 71 308 3.0 9.0 0.00 0.00 0.00 31 1003.8
20260504190026 71 134 3.0 10.0 0.00 0.00 0.00 29 1004.0
20260504184516 71 231 2.0 12.0 0.00 0.00 0.00 30 1004.0
20260504183115 70 219 3.0 12.0 0.00 0.00 0.00 30 1004.1
20260504181517 69 310 1.0 14.0 0.00 0.00 0.00 30 1004.2
20260504180010 69 215 5.0 14.0 0.00 0.00 0.00 29 1004.4
20260504174512 68 309 4.0 11.0 0.00 0.00 0.00 31 1004.5
20260504173109 68 264 4.0 11.0 0.00 0.00 0.00 32 1004.7
20260504171508 67 259 3.0 11.0 0.00 0.00 0.00 33 1004.9
20260504081552 44 294 0.0 1.0 0.00 0.00 0.00 57 1007.1
20260504044542 44 295 0.0 0.0 0.00 0.00 0.00 57 1007.1
20260504043051 43 295 0.0 0.0 0.00 0.00 0.00 57 1007.2
20260504041541 43 295 0.0 0.0 0.00 0.00 0.00 58 1007.1
20260504040040 43 295 0.0 0.0 0.00 0.00 0.00 57 1007.0
20260504034547 42 295 0.0 0.0 0.00 0.00 0.00 57 1006.9
20260504033041 42 295 0.0 0.0 0.00 0.00 0.00 58 1006.8
20260504031538 42 295 0.0 0.0 0.00 0.00 0.00 58 1006.7
20260504030042 42 295 0.0 0.0 0.00 0.00 0.00 59 1006.6
20260504024535 42 295 0.0 0.0 0.00 0.00 0.00 59 1006.4
20260504023035 42 295 0.0 0.0 0.00 0.00 0.00 59 1006.4
20260504021537 42 295 0.0 0.0 0.00 0.00 0.00 58 1006.4
20260504020040 42 295 0.0 0.0 0.00 0.00 0.00 58 1006.3
20260504014538 43 295 0.0 0.0 0.00 0.00 0.00 57 1006.3
20260504013036 43 295 0.0 0.0 0.00 0.00 0.00 57 1006.1
20260504011533 44 295 0.0 0.0 0.00 0.00 0.00 56 1006.0
20260504010031 45 295 0.0 0.0 0.00 0.00 0.00 53 1005.8
20260504004534 46 295 0.0 0.0 0.00 0.00 0.00 51 1005.6
20260504003031 47 295 0.0 0.0 0.00 0.00 0.00 48 1005.5
20260504001536 48 295 0.0 0.0 0.00 0.00 0.00 44 1005.4
20260504000031 49 295 0.0 1.0 0.00 0.00 0.00 43 1005.3
20260503234533 50 295 1.0 5.0 0.00 0.00 0.00 41 1005.2
20260503233031 50 286 1.0 5.0 0.00 0.00 0.00 40 1005.0
20260503231531 51 280 0.0 7.0 0.00 0.00 0.00 40 1004.9
20260503230031 51 314 1.0 5.0 0.00 0.00 0.00 39 1004.7
20260503224530 51 306 2.0 8.0 0.00 0.00 0.00 38 1004.7
20260503223030 52 349 1.0 5.0 0.00 0.00 0.00 38 1004.6
20260503221532 52 243 0.0 8.0 0.00 0.00 0.00 39 1004.4
20260503220030 52 282 0.0 10.0 0.00 0.00 0.00 38 1004.4
20260503214539 52 9 1.0 10.0 0.00 0.00 0.00 38 1004.2